GSAT0202 (GALILEO 6)

Last updated on Thu Nov 21 2024 00:02:30 GMT+0000 (Coordinated Universal Time)

1 40129U 14050B 24324.57455334 -.00000069 00000+0 00000+0 0 9991 2 40129 49.5149 295.8851 1614584 158.0890 209.7021 1.85520315 69824
UTC large
Height (km)
Speed (km/s)
/
Latitude / Longitude
Inclination (degrees)
Orbital Period (minutes)
Azimuth
Elevation
Range (km)
Doppler Factor

Next 0 passes for location: London (51.5072 / 0.1276)

Sorry there are no passes over London.